Regional Weather Roundup
Issued by NWS

Home | Current Version | Previous Version | Text Only | Print | Product List | Glossary On
Versions: 1 2 3 4 5 6 7 8 9 10 11 12 13 14 15 16 17 18 19 20 21 22 23 24 25 26 27 28 29 30 31 32 33 34 35 36 37 38 39 40 41 42 43 44 45 46 47 48 49 50
000
ASUS43 KMKX 190321
RWRWI

WISCONSIN REGIONAL WEATHER ROUNDUP
NATIONAL WEATHER SERVICE MILWAUKEE/SULLIVAN WI
900 PM CST THU DEC 18 2014

NOTE: "FAIR" INDICATES FEW OR NO CLOUDS BELOW 12,000 FEET WITH NO
SIGNIFICANT WEATHER AND/OR OBSTRUCTIONS TO VISIBILITY.

WIZ001-002-006>008-014>016-023>028-190400-
NORTHWEST WISCONSIN

CITY           SKY/WX    TMP DP  RH WIND       PRES   REMARKS
SUPERIOR ARPT  CLOUDY    25  21  87 S3        30.27S
ASHLAND        CLOUDY    22  18  85 SW5       30.28S WCI  16
HAYWARD        CLOUDY    22  19  89 CALM      30.24F
SIREN          CLOUDY    23  19  87 SE3       30.26S
CUMBERLAND     CLOUDY    21  19  93 SE5       30.24S WCI  15
RICE LAKE      CLOUDY    23  20  89 E3        30.27S
CHETEK         CLOUDY    22  20  90 CALM      30.26S
LADYSMITH      CLOUDY    23  21  91 CALM      30.26S
EAU CLAIRE     CLOUDY    24  18  77 VRB3      30.26S
MENOMONIE      CLOUDY    24  20  83 CALM      30.27S
NEW RICHMOND   CLOUDY    22  20  91 CALM      30.26S
OSCEOLA        CLOUDY    23  20  86 S3        30.29S
$$

WIZ003>005-009-010-017-018-190400-
NORTH CENTRAL WISCONSIN

CITY           SKY/WX    TMP DP  RH WIND       PRES   REMARKS
MANITOWISH WTR MOCLDY     6   4  90 CALM      30.22R
ARBOR VITAE    PTCLDY    11   9  89 CALM      30.22S
WOODRUFF       PTCLDY    11   9  89 CALM      30.22S
RHINELANDER    PTCLDY     8   6  92 CALM      30.21S
EAGLE RIVER    PTCLDY     7   5  90 CALM      30.21S
LAND O LAKES   PTCLDY     3  -1  85 CALM      30.22S
PHILLIPS       CLOUDY    19  17  90 CALM      30.22F
TOMAHAWK       PTCLDY     7   4  88 CALM      30.23S
MEDFORD        CLOUDY    20  17  88 CALM      30.22S
MERRILL        CLEAR     12  10  94 CALM      30.23S
$$

WIZ029-030-035-036-043>047-190400-
CENTRAL WISCONSIN

CITY           SKY/WX    TMP DP  RH WIND       PRES   REMARKS
WAUSAU         PTCLDY    19  16  88 N3        30.22F
MOSINEE        NOT AVBL
MARSHFIELD     MOCLDY    22  19  89 CALM      30.23S
STEVENS POINT  PTCLDY    15  13  94 CALM      30.25S
WAUPACA        CLEAR     20  18  90 CALM      30.26S
WAUTOMA        CLEAR     18  16  92 CALM      30.26S
WISC RAPIDS    PTCLDY    20  16  84 CALM      30.26S
CAMP DOUGLAS   CLOUDY    24  24  99 CALM      30.26S
$$

WIZ011>013-019>022-031-037>040-048>050-190400-
NORTHEAST WISCONSIN

CITY           SKY/WX    TMP DP  RH WIND       PRES   REMARKS
ANTIGO         CLEAR     14  13  98 CALM      30.21F
SHAWANO        CLEAR     20  18  91 CALM      30.26S
OCONTO         CLEAR     15  15  98 CALM      30.27R
STURGEON BAY   CLEAR     18  14  86 CALM      30.27R
GREEN BAY      CLEAR     20  18  92 CALM      30.26F
MANITOWOC      CLEAR     21  19  92 NW6       30.26S WCI  13
APPLETON       PTCLDY    19  16  86 W7        30.25F WCI  10
CLINTONVILLE   CLEAR     21  18  86 W3        30.25F
OSHKOSH        PTCLDY    23  18  81 CALM      30.25F
$$

WIZ032>034-041-042-053>061-190400-
SOUTHWEST WISCONSIN

CITY           SKY/WX    TMP DP  RH WIND       PRES   REMARKS
LA CROSSE      CLOUDY    26  18  71 SE5       30.28S WCI  20
SPARTA         CLOUDY    25  20  80 CALM      30.28R
VIROQUA        CLOUDY    23  20  88 CALM      30.24R
BOSCOBEL       CLOUDY    27  17  66 CALM      30.28F
PRAIRIE DU CHI CLOUDY    27  18  69 NE3       30.27F
PLATTEVILLE    CLOUDY    25  20  79 CALM      30.26S
$$

WIZ056-057-062-063-064-067-068-190400-
SOUTH CENTRAL WISCONSIN

CITY           SKY/WX    TMP DP  RH WIND       PRES   REMARKS
REEDSBURG      CLOUDY    25  20  82 CALM      30.26S
BARABOO/DELLS  CLOUDY    25  20  82 CALM      30.25S
LONE ROCK      NOT AVBL
MINERAL POINT  CLOUDY    27  21  80 CALM      30.24F
MADISON        CLOUDY    26  22  84 CALM      30.25S
MIDDLETON      CLOUDY    28  22  79 CALM      30.25F
WATERTOWN      CLOUDY    26  24  93 N3        30.25S
MONROE         CLOUDY    27  23  86 CALM      30.24S
JANESVILLE     CLOUDY    28  27  93 CALM      30.25S
$$

WIZ051-052-058>065-066-070>072-190400-
SOUTHEAST WISCONSIN

CITY           SKY/WX    TMP DP  RH WIND       PRES   REMARKS
MILWAUKEE      CLOUDY    28  21  75 W7        30.25S WCI  21
WAUKESHA       CLOUDY    25  23  93 NW3       30.26R
MILWAUKEE/TIMM CLOUDY    28  21  74 NW5       30.26S WCI  23
RACINE         CLOUDY    28  23  81 NW6       30.26S WCI  22
BURLINGTON     CLOUDY    26  24  93 NW5       30.25S WCI  20
KENOSHA        CLOUDY    28  24  85 NW6       30.25S WCI  22
FOND DU LAC    PTCLDY    22  17  81 CALM      30.25F
SHEBOYGAN      PTCLDY    22  17  81 NW5       30.25F WCI  16
WEST BEND      CLOUDY    27  21  80 NW6       30.24S WCI  20
JUNEAU         CLOUDY    25  21  83 CALM      30.26S
$$

LSZ147-162-190400-
LAKE SUPERIOR

STATION/POSITION TIME  TEMP    WIND        PRES    WAVE
                       AIR SEA DIR/SP/G            HT/PER
                 (UTC) (F)     (DEG/KT/KT) (MB)    (FT/S)
DEVILS ISLAND    0300   27     240/  4/  5 1026.3R
PORT WING        0200   24     120/  5/  7 1025.4S
SAXON HARBOR     0240   24        CALM     1025.1S
$$

LMZ867-665-643>646-190400-
LAKE MICHIGAN

STATION/POSITION TIME  TEMP    WIND        PRES    WAVE
                       AIR SEA DIR/SP/G            HT/PER
                 (UTC) (F)     (DEG/KT/KT) (MB)    (FT/S)
CHAMBERS ISLAND  0200   29      20/ 11/ 13 1024.7R
NORTHPORT PIER   0302   27      20/  6/ 11 1024.4S
SISTER BAY       0228             CALM       N/A
ALGOMA LAKESHORE 0114          330/  6/  7   N/A
KEWAUNEE LAKESHO 0200   19     310/  5/  6 1023.5F
SHEBOYGAN LAKESH 0300   26 34  300/  7/  8 1025.7F
PORT WASHINGTON  0240   28     320/  5/  7 1025.1S
MILWAUKEE LAKESH 0300   29     290/  5/  6   N/A
KENOSHA   LAKESH 0300   28     300/  5/  9 1024.4S
$$

TC  - TEMPERATURE IN CELSIUS
VSB - VISIBILITY IN STATUTE MILES
WCI - WIND CHILL INDEX
HX  - HEAT INDEX




USA.gov is the U.S. government's official web portal to all federal, state and local government web resources and services.